Zurück zum Katalog

STARLINK-32727

AktivKommunikationVLEO
NORAD 62828·PAYLOAD·🇺🇸 United States

Gestartet Jan 24, 2025 von Vandenberg Space Force Base

Loading…

Nächste Überflüge (nächste 24 Stunden)

TLE

AktuellSource: CelesTrak SupGP

Epoche: Sep 14, 2026, 22:38 UTC

1 62828C 25018Y   26257.94354167 -.00095898  00000+0 -28334-2 0  2572
2 62828  53.1571 143.5734 0001248  81.4399 222.9360 15.34437546    13

Verfolge STARLINK-32727 in Echtzeit mit AllMySat

Download on the App Store